,,,PA_Meas_PMT16A,,PR_Meas_QMR101_102,,RH_Meas_QMH101,,SR_Meas_QMS101,,TA_Meas_QMH101,,GenWind,,GenWind,
date,time,status,PA,status,PR,status,RH,status,SR,status,TA,status,DirAvg,status,SpdAvg,
2010-04-08, 00:00:05,VALID,1002.12,VALID,0,VALID,94.1571,VALID,0,VALID,24.2476,VALID,171,VALID,0,
2010-04-08, 00:01:05,VALID,1002.15,VALID,0,VALID,94.1571,VALID,0,VALID,24.2263,VALID,171,VALID,0,
2010-04-08, 00:02:05,VALID,1002.11,VALID,0,VALID,94.1648,VALID,0,VALID,24.2086,VALID,133,VALID,0,
2010-04-08, 00:03:05,VALID,1002.13,VALID,0,VALID,94.18,VALID,0,VALID,24.1677,VALID,132,VALID,0,
2010-04-08, 00:04:05,VALID,1002.07,VALID,0,VALID,94.1953,VALID,0,VALID,24.1872,VALID,132,VALID,0,
2010-04-08, 00:05:05,VALID,1002.07,VALID,0,VALID,94.1877,VALID,0,VALID,24.2281,VALID,133,VALID,0.915625,
2010-04-08, 00:06:05,VALID,1002.03,VALID,0,VALID,94.18,VALID,0,VALID,24.2476,VALID,134,VALID,0.778125,
2010-04-08, 00:07:05,VALID,1001.99,VALID,0,VALID,94.2029,VALID,0,VALID,24.2671,VALID,135,VALID,0.761328,
2010-04-08, 00:08:05,VALID,1001.99,VALID,0,VALID,94.18,VALID,0,VALID,24.2866,VALID,135,VALID,0.431641,
2010-04-08, 00:09:05,VALID,1001.99,VALID,0,VALID,94.1724,VALID,0,VALID,24.2653,VALID,137,VALID,0.560938,
2010-04-08, 00:10:05,VALID,1002.01,VALID,0,VALID,94.18,VALID,0,VALID,24.3043,VALID,153,VALID,0.784375,
2010-04-08, 00:11:05,VALID,1001.99,VALID,0,VALID,94.1953,VALID,0,VALID,24.3043,VALID,155,VALID,0.976172,
2010-04-08, 00:12:05,VALID,1001.95,VALID,0,VALID,94.1724,VALID,0,VALID,24.3238,VALID,155,VALID,1.00195,
2010-04-08, 00:13:05,VALID,1001.91,VALID,0,VALID,94.1724,VALID,0,VALID,24.3452,VALID,154,VALID,1.00625,
2010-04-08, 00:14:05,VALID,1001.87,VALID,0,VALID,94.18,VALID,0,VALID,24.3238,VALID,152,VALID,0.758594,
2010-04-08, 00:15:05,VALID,1001.84,VALID,0,VALID,94.1724,VALID,0,VALID,24.3257,VALID,147,VALID,0.825391,
2010-04-08, 00:16:05,VALID,1001.79,VALID,0,VALID,94.1571,VALID,0,VALID,24.3257,VALID,145,VALID,0.531641,
2010-04-08, 00:17:05,VALID,1001.81,VALID,0,VALID,94.1495,VALID,0,VALID,24.3062,VALID,139,VALID,0.442187,
2010-04-08, 00:18:05,VALID,1001.79,VALID,0,VALID,94.1648,VALID,0,VALID,24.2653,VALID,138,VALID,0,
2010-04-08, 00:19:05,VALID,1001.82,VALID,0,VALID,94.1571,VALID,0,VALID,24.2653,VALID,134,VALID,0.238672,
2010-04-08, 00:20:05,VALID,1001.82,VALID,0,VALID,94.18,VALID,0,VALID,24.2671,VALID,132,VALID,0.699219,
2010-04-08, 00:21:05,VALID,1001.85,VALID,0,VALID,94.1571,VALID,0,VALID,24.2671,VALID,132,VALID,0.649219,
2010-04-08, 00:22:05,VALID,1001.87,VALID,0,VALID,94.1571,VALID,0,VALID,24.2263,VALID,132,VALID,0.703906,
2010-04-08, 00:23:05,VALID,1001.87,VALID,0,VALID,94.1648,VALID,0,VALID,24.2281,VALID,132,VALID,0.550781,
2010-04-08, 00:24:05,VALID,1001.85,VALID,0,VALID,94.18,VALID,0,VALID,24.1872,VALID,132,VALID,0.552734,
2010-04-08, 00:25:05,VALID,1001.86,VALID,0,VALID,94.2105,VALID,0,VALID,24.2281,VALID,130,VALID,0,
2010-04-08, 00:26:05,VALID,1001.8,VALID,0,VALID,94.1877,VALID,0,VALID,24.2281,VALID,126,VALID,0,
2010-04-08, 00:27:05,VALID,1001.71,VALID,0,VALID,94.1877,VALID,0,VALID,24.2086,VALID,105,VALID,0.326953,
2010-04-08, 00:28:05,VALID,1001.67,VALID,0,VALID,94.18,VALID,0,VALID,24.2086,VALID,105,VALID,0.430859,
2010-04-08, 00:29:05,VALID,1001.64,VALID,0,VALID,94.1953,VALID,0,VALID,24.1872,VALID,105,VALID,0.0519531,
2010-04-08, 00:30:05,VALID,1001.61,VALID,0,VALID,94.2182,VALID,0,VALID,24.2086,VALID,106,VALID,0,
2010-04-08, 00:31:05,VALID,1001.6,VALID,0,VALID,94.2029,VALID,0,VALID,24.1872,VALID,106,VALID,0,
2010-04-08, 00:32:05,VALID,1001.6,VALID,0,VALID,94.2258,VALID,0,VALID,24.2067,VALID,106,VALID,0,
2010-04-08, 00:33:05,VALID,1001.58,VALID,0,VALID,94.2029,VALID,0,VALID,24.2281,VALID,106,VALID,0,
2010-04-08, 00:34:05,VALID,1001.58,VALID,0,VALID,94.2182,VALID,0,VALID,24.2263,VALID,106,VALID,0,
2010-04-08, 00:35:05,VALID,1001.58,VALID,0,VALID,94.1877,VALID,0,VALID,24.2476,VALID,106,VALID,0,
2010-04-08, 00:36:05,VALID,1001.56,VALID,0,VALID,94.2029,VALID,0,VALID,24.2476,VALID,106,VALID,0,
2010-04-08, 00:37:05,VALID,1001.53,VALID,0,VALID,94.1953,VALID,0,VALID,24.2263,VALID,105,VALID,0,
2010-04-08, 00:38:05,VALID,1001.5,VALID,0,VALID,94.1877,VALID,0,VALID,24.1891,VALID,18,VALID,0,
2010-04-08, 00:39:05,VALID,1001.49,VALID,0,VALID,94.1877,VALID,0,VALID,24.1287,VALID,16,VALID,0.932813,
2010-04-08, 00:40:05,VALID,1001.49,VALID,0,VALID,94.1571,VALID,0,VALID,24.1092,VALID,16,VALID,0.81875,
2010-04-08, 00:41:05,VALID,1001.46,VALID,0,VALID,94.1724,VALID,0,VALID,24.0311,VALID,16,VALID,0.723047,
2010-04-08, 00:42:05,VALID,1001.48,VALID,0,VALID,94.2105,VALID,0,VALID,24.0116,VALID,16,VALID,0.659375,
2010-04-08, 00:43:05,VALID,1001.47,VALID,0,VALID,94.2258,VALID,0,VALID,24.0329,VALID,16,VALID,0.705078,
2010-04-08, 00:44:05,VALID,1001.49,VALID,0,VALID,94.2487,VALID,0,VALID,24.0506,VALID,16,VALID,0.772656,
2010-04-08, 00:45:05,VALID,1001.57,VALID,0,VALID,94.2334,VALID,0,VALID,24.072,VALID,16,VALID,0.418359,
2010-04-08, 00:46:05,VALID,1001.57,VALID,0,VALID,94.2258,VALID,0,VALID,24.072,VALID,16,VALID,0,
2010-04-08, 00:47:05,VALID,1001.58,VALID,0,VALID,94.2182,VALID,0,VALID,24.0915,VALID,16,VALID,0,
2010-04-08, 00:48:05,VALID,1001.59,VALID,0,VALID,94.2334,VALID,0,VALID,24.0915,VALID,19,VALID,0.0195313,
2010-04-08, 00:49:05,VALID,1001.54,VALID,0,VALID,94.2411,VALID,0,VALID,24.0701,VALID,24,VALID,0,
2010-04-08, 00:50:05,VALID,1001.55,VALID,0,VALID,94.2411,VALID,0,VALID,24.0701,VALID,44,VALID,0,
2010-04-08, 00:51:05,VALID,1001.5,VALID,0,VALID,94.2563,VALID,0,VALID,24.111,VALID,49,VALID,0,
2010-04-08, 00:52:05,VALID,1001.5,VALID,0,VALID,94.2411,VALID,0,VALID,24.1092,VALID,49,VALID,0,
2010-04-08, 00:53:05,VALID,1001.49,VALID,0,VALID,94.2487,VALID,0,VALID,24.1287,VALID,49,VALID,0,
2010-04-08, 00:54:05,VALID,1001.47,VALID,0,VALID,94.2716,VALID,0,VALID,24.1696,VALID,49,VALID,0,
2010-04-08, 00:55:05,VALID,1001.47,VALID,0,VALID,94.2411,VALID,0,VALID,24.1891,VALID,49,VALID,0,
2010-04-08, 00:56:05,VALID,1001.5,VALID,0,VALID,94.2182,VALID,0,VALID,24.1891,VALID,49,VALID,0,
2010-04-08, 00:57:05,VALID,1001.49,VALID,0,VALID,94.2182,VALID,0,VALID,24.1891,VALID,49,VALID,0,
2010-04-08, 00:58:05,VALID,1001.45,VALID,0,VALID,94.2105,VALID,0,VALID,24.1696,VALID,49,VALID,0,
2010-04-08, 00:59:05,VALID,1001.41,VALID,0,VALID,94.2182,VALID,0,VALID,24.15,VALID,49,VALID,0,
2010-04-08, 01:00:05,VALID,1001.38,VALID,0,VALID,94.1953,VALID,0,VALID,24.1287,VALID,49,VALID,0,
2010-04-08, 01:01:05,VALID,1001.41,VALID,0,VALID,94.2258,VALID,0,VALID,24.1092,VALID,49,VALID,0,
2010-04-08, 01:02:05,VALID,1001.38,VALID,0,VALID,94.2258,VALID,0,VALID,24.1287,VALID,49,VALID,0,
2010-04-08, 01:03:05,VALID,1001.37,VALID,0,VALID,94.2029,VALID,0,VALID,24.1092,VALID,49,VALID,0,
2010-04-08, 01:04:05,VALID,1001.39,VALID,0,VALID,94.2182,VALID,0,VALID,24.1092,VALID,49,VALID,0,
2010-04-08, 01:05:05,VALID,1001.35,VALID,0,VALID,94.2182,VALID,0,VALID,24.1287,VALID,49,VALID,0,
2010-04-08, 01:06:05,VALID,1001.35,VALID,0,VALID,94.2258,VALID,0,VALID,24.1305,VALID,49,VALID,0,
2010-04-08, 01:07:05,VALID,1001.33,VALID,0,VALID,94.2563,VALID,0,VALID,24.1482,VALID,49,VALID,0,
2010-04-08, 01:08:05,VALID,1001.3,VALID,0,VALID,94.2258,VALID,0,VALID,24.1677,VALID,62,VALID,0,
2010-04-08, 01:09:05,VALID,1001.3,VALID,0,VALID,94.2258,VALID,0,VALID,24.1677,VALID,70,VALID,0,
2010-04-08, 01:10:05,VALID,1001.25,VALID,0,VALID,94.2487,VALID,0,VALID,24.1482,VALID,73,VALID,0,
2010-04-08, 01:11:05,VALID,1001.21,VALID,0,VALID,94.2105,VALID,0,VALID,24.1677,VALID,73,VALID,0,
2010-04-08, 01:12:05,VALID,1001.21,VALID,0,VALID,94.2334,VALID,0,VALID,24.1482,VALID,81,VALID,0,
2010-04-08, 01:13:05,VALID,1001.17,VALID,0,VALID,94.2182,VALID,0,VALID,24.1482,VALID,67,VALID,0,
2010-04-08, 01:14:05,VALID,1001.15,VALID,0,VALID,94.2182,VALID,0,VALID,24.1287,VALID,48,VALID,0,
2010-04-08, 01:15:05,VALID,1001.14,VALID,0,VALID,94.18,VALID,0,VALID,24.0915,VALID,35,VALID,0,
2010-04-08, 01:16:05,VALID,1001.13,VALID,0,VALID,94.1877,VALID,0,VALID,24.0311,VALID,29,VALID,0,
2010-04-08, 01:17:05,VALID,1001.12,VALID,0,VALID,94.2411,VALID,0,VALID,23.9921,VALID,28,VALID,0,
2010-04-08, 01:18:05,VALID,1001.12,VALID,0,VALID,94.2258,VALID,0,VALID,23.9939,VALID,28,VALID,0,
2010-04-08, 01:19:05,VALID,1001.12,VALID,0,VALID,94.2487,VALID,0,VALID,23.9531,VALID,28,VALID,0,
2010-04-08, 01:20:05,VALID,1001.12,VALID,0,VALID,94.2411,VALID,0,VALID,23.9726,VALID,10,VALID,0,
2010-04-08, 01:21:05,VALID,1001.13,VALID,0,VALID,94.2563,VALID,0,VALID,24.0134,VALID,10,VALID,0,
2010-04-08, 01:22:05,VALID,1001.15,VALID,0,VALID,94.2411,VALID,0,VALID,24.0116,VALID,10,VALID,0,
2010-04-08, 01:23:05,VALID,1001.15,VALID,0,VALID,94.2411,VALID,0,VALID,24.0116,VALID,10,VALID,0,
2010-04-08, 01:24:05,VALID,1001.15,VALID,0,VALID,94.2334,VALID,0,VALID,24.0116,VALID,10,VALID,0,
2010-04-08, 01:25:05,VALID,1001.16,VALID,0,VALID,94.2411,VALID,0,VALID,24.0134,VALID,10,VALID,0,
2010-04-08, 01:26:05,VALID,1001.14,VALID,0,VALID,94.2563,VALID,0,VALID,23.9726,VALID,10,VALID,0,
2010-04-08, 01:27:05,VALID,1001.14,VALID,0,VALID,94.2487,VALID,0,VALID,23.9921,VALID,10,VALID,0,
2010-04-08, 01:28:05,VALID,1001.13,VALID,0,VALID,94.2563,VALID,0,VALID,23.9726,VALID,10,VALID,0,
2010-04-08, 01:29:05,VALID,1001.12,VALID,0,VALID,94.2487,VALID,0,VALID,23.9744,VALID,10,VALID,0,
2010-04-08, 01:30:05,VALID,1001.1,VALID,0,VALID,94.2411,VALID,0,VALID,23.914,VALID,10,VALID,0,
2010-04-08, 01:31:05,VALID,1001.08,VALID,0,VALID,94.264,VALID,0,VALID,23.914,VALID,10,VALID,0,
2010-04-08, 01:32:05,VALID,1001.05,VALID,0,VALID,94.2334,VALID,0,VALID,23.9159,VALID,10,VALID,0,
2010-04-08, 01:33:05,VALID,1001.02,VALID,0,VALID,94.2487,VALID,0,VALID,23.914,VALID,10,VALID,0,
2010-04-08, 01:34:05,VALID,1000.98,VALID,0,VALID,94.2792,VALID,0,VALID,23.9336,VALID,10,VALID,0,
2010-04-08, 01:35:05,VALID,1000.98,VALID,0,VALID,94.2487,VALID,0,VALID,23.9744,VALID,10,VALID,0,
2010-04-08, 01:36:05,VALID,1000.95,VALID,0,VALID,94.2716,VALID,0,VALID,23.9531,VALID,10,VALID,0,
2010-04-08, 01:37:05,VALID,1000.97,VALID,0,VALID,94.2563,VALID,0,VALID,24.0134,VALID,10,VALID,0,
2010-04-08, 01:38:05,VALID,1000.95,VALID,0,VALID,94.264,VALID,0,VALID,24.0134,VALID,10,VALID,0,
2010-04-08, 01:39:05,VALID,1000.98,VALID,0,VALID,94.264,VALID,0,VALID,24.0311,VALID,10,VALID,0,
2010-04-08, 01:40:05,VALID,1000.99,VALID,0,VALID,94.2716,VALID,0,VALID,24.0311,VALID,10,VALID,0,
2010-04-08, 01:41:05,VALID,1001.01,VALID,0,VALID,94.2563,VALID,0,VALID,24.0525,VALID,10,VALID,0,
2010-04-08, 01:42:05,VALID,1001.01,VALID,0,VALID,94.2563,VALID,0,VALID,24.0311,VALID,10,VALID,0,
2010-04-08, 01:43:05,VALID,1001.01,VALID,0,VALID,94.2487,VALID,0,VALID,24.0329,VALID,10,VALID,0,
2010-04-08, 01:44:05,VALID,1001.01,VALID,0,VALID,94.2792,VALID,0,VALID,24.0329,VALID,10,VALID,0,
2010-04-08, 01:45:05,VALID,1001,VALID,0,VALID,94.2563,VALID,0,VALID,24.0116,VALID,10,VALID,0,
2010-04-08, 01:46:05,VALID,1000.96,VALID,0,VALID,94.2563,VALID,0,VALID,24.0311,VALID,10,VALID,0,
2010-04-08, 01:47:05,VALID,1000.97,VALID,0,VALID,94.2868,VALID,0,VALID,24.0506,VALID,10,VALID,0,
2010-04-08, 01:48:05,VALID,1000.96,VALID,0,VALID,94.2563,VALID,0,VALID,24.0701,VALID,10,VALID,0,
2010-04-08, 01:49:05,VALID,1000.94,VALID,0,VALID,94.264,VALID,0,VALID,24.0915,VALID,95,VALID,0,
2010-04-08, 01:50:05,VALID,1000.96,VALID,0,VALID,94.2716,VALID,0,VALID,24.0915,VALID,96,VALID,0,
2010-04-08, 01:51:05,VALID,1000.91,VALID,0,VALID,94.2411,VALID,0,VALID,24.072,VALID,96,VALID,0,
2010-04-08, 01:52:05,VALID,1000.91,VALID,0,VALID,94.2487,VALID,0,VALID,24.0915,VALID,96,VALID,0,
2010-04-08, 01:53:05,VALID,1000.95,VALID,0,VALID,94.2563,VALID,0,VALID,24.0506,VALID,102,VALID,0,
2010-04-08, 01:54:05,VALID,1000.93,VALID,0,VALID,94.2411,VALID,0,VALID,24.072,VALID,102,VALID,0,
2010-04-08, 01:55:05,VALID,1000.99,VALID,0,VALID,94.264,VALID,0,VALID,24.0311,VALID,102,VALID,0,
2010-04-08, 01:56:05,VALID,1000.99,VALID,0,VALID,94.2563,VALID,0,VALID,24.072,VALID,111,VALID,0,
2010-04-08, 01:57:05,VALID,1000.97,VALID,0,VALID,94.2563,VALID,0,VALID,24.0311,VALID,111,VALID,0,
2010-04-08, 01:58:05,VALID,1000.97,VALID,0,VALID,94.2563,VALID,0,VALID,24.072,VALID,111,VALID,0,
2010-04-08, 01:59:05,VALID,1000.95,VALID,0,VALID,94.2563,VALID,0,VALID,24.0525,VALID,121,VALID,0,
2010-04-08, 02:00:05,VALID,1000.93,VALID,0,VALID,94.2563,VALID,0,VALID,24.0311,VALID,121,VALID,0,
2010-04-08, 02:01:05,VALID,1000.9,VALID,0,VALID,94.2487,VALID,0,VALID,24.0329,VALID,121,VALID,0,
2010-04-08, 02:02:05,VALID,1000.88,VALID,0,VALID,94.2487,VALID,0,VALID,24.0116,VALID,121,VALID,0,
2010-04-08, 02:03:05,VALID,1000.87,VALID,0,VALID,94.2487,VALID,0,VALID,24.0116,VALID,121,VALID,0,
2010-04-08, 02:04:05,VALID,1000.85,VALID,0,VALID,94.264,VALID,0,VALID,24.0134,VALID,121,VALID,0,
2010-04-08, 02:05:05,VALID,1000.85,VALID,0,VALID,94.2411,VALID,0,VALID,24.0329,VALID,121,VALID,0,
2010-04-08, 02:06:05,VALID,1000.85,VALID,0,VALID,94.264,VALID,0,VALID,24.0134,VALID,121,VALID,0,
2010-04-08, 02:07:05,VALID,1000.84,VALID,0,VALID,94.2792,VALID,0,VALID,24.0134,VALID,121,VALID,0,
2010-04-08, 02:08:05,VALID,1000.86,VALID,0,VALID,94.2792,VALID,0,VALID,24.0134,VALID,121,VALID,0,
2010-04-08, 02:09:05,VALID,1000.84,VALID,0,VALID,94.264,VALID,0,VALID,23.9921,VALID,121,VALID,0,
2010-04-08, 02:10:05,VALID,1000.82,VALID,0,VALID,94.2716,VALID,0,VALID,24.0134,VALID,121,VALID,0,
2010-04-08, 02:11:05,VALID,1000.82,VALID,0,VALID,94.2487,VALID,0,VALID,24.0134,VALID,121,VALID,0,
2010-04-08, 02:12:05,VALID,1000.82,VALID,0,VALID,94.2716,VALID,0,VALID,23.9921,VALID,119,VALID,0,
2010-04-08, 02:13:05,VALID,1000.81,VALID,0,VALID,94.2868,VALID,0,VALID,24.0134,VALID,117,VALID,0,
2010-04-08, 02:14:05,VALID,1000.85,VALID,0,VALID,94.2792,VALID,0,VALID,24.0134,VALID,117,VALID,0,
2010-04-08, 02:15:05,VALID,1000.79,VALID,0,VALID,94.2716,VALID,0,VALID,23.9726,VALID,117,VALID,0,
2010-04-08, 02:16:05,VALID,1000.81,VALID,0,VALID,94.2716,VALID,0,VALID,23.9939,VALID,117,VALID,0,
2010-04-08, 02:17:05,VALID,1000.79,VALID,0,VALID,94.2792,VALID,0,VALID,23.9726,VALID,117,VALID,0,
2010-04-08, 02:18:05,VALID,1000.79,VALID,0,VALID,94.264,VALID,0,VALID,24.0134,VALID,117,VALID,0,
2010-04-08, 02:19:05,VALID,1000.78,VALID,0,VALID,94.264,VALID,0,VALID,24.0134,VALID,117,VALID,0,
2010-04-08, 02:20:05,VALID,1000.78,VALID,0,VALID,94.264,VALID,0,VALID,23.9939,VALID,117,VALID,0,
2010-04-08, 02:21:05,VALID,1000.8,VALID,0,VALID,94.2792,VALID,0,VALID,23.9744,VALID,117,VALID,0,
2010-04-08, 02:22:05,VALID,1000.77,VALID,0,VALID,94.2716,VALID,0,VALID,23.9549,VALID,117,VALID,0,
2010-04-08, 02:23:05,VALID,1000.79,VALID,0,VALID,94.2716,VALID,0,VALID,23.9531,VALID,117,VALID,0,
2010-04-08, 02:24:05,VALID,1000.79,VALID,0,VALID,94.2792,VALID,0,VALID,23.9939,VALID,117,VALID,0,
2010-04-08, 02:25:05,VALID,1000.82,VALID,0,VALID,94.2792,VALID,0,VALID,24.0134,VALID,117,VALID,0,
2010-04-08, 02:26:05,VALID,1000.83,VALID,0,VALID,94.2487,VALID,0,VALID,23.9939,VALID,117,VALID,0,
2010-04-08, 02:27:05,VALID,1000.82,VALID,0,VALID,94.2792,VALID,0,VALID,23.9939,VALID,108,VALID,0,
2010-04-08, 02:28:05,VALID,1000.86,VALID,0,VALID,94.264,VALID,0,VALID,24.0348,VALID,71,VALID,0,
2010-04-08, 02:29:05,VALID,1000.85,VALID,0,VALID,94.2792,VALID,0,VALID,24.0134,VALID,57,VALID,0,
2010-04-08, 02:30:05,VALID,1000.89,VALID,0,VALID,94.264,VALID,0,VALID,23.9939,VALID,54,VALID,0,
2010-04-08, 02:31:05,VALID,1000.88,VALID,0,VALID,94.2487,VALID,0,VALID,23.9744,VALID,50,VALID,0,
2010-04-08, 02:32:04,VALID,1000.91,VALID,0,VALID,94.264,VALID,0,VALID,23.9939,VALID,48,VALID,0,
2010-04-08, 02:33:04,VALID,1000.92,VALID,0,VALID,94.2716,VALID,0,VALID,23.9336,VALID,40,VALID,0,
2010-04-08, 02:34:04,VALID,1000.9,VALID,0,VALID,94.2868,VALID,0,VALID,23.9354,VALID,34,VALID,0,
2010-04-08, 02:35:04,VALID,1000.9,VALID,0,VALID,94.2716,VALID,0,VALID,23.9354,VALID,34,VALID,0,
2010-04-08, 02:36:04,VALID,1000.91,VALID,0,VALID,94.3097,VALID,0,VALID,23.914,VALID,33,VALID,0,
2010-04-08, 02:37:04,VALID,1000.93,VALID,0,VALID,94.2868,VALID,0,VALID,23.9354,VALID,33,VALID,0,
2010-04-08, 02:38:04,VALID,1000.95,VALID,0,VALID,94.2868,VALID,0,VALID,23.9354,VALID,33,VALID,0,
2010-04-08, 02:39:04,VALID,1000.92,VALID,0,VALID,94.2716,VALID,0,VALID,23.9336,VALID,33,VALID,0,
2010-04-08, 02:40:04,VALID,1000.96,VALID,0,VALID,94.2945,VALID,0,VALID,23.9354,VALID,33,VALID,0,
2010-04-08, 02:41:04,VALID,1000.98,VALID,0,VALID,94.2868,VALID,0,VALID,23.9549,VALID,33,VALID,0,
2010-04-08, 02:42:04,VALID,1000.96,VALID,0,VALID,94.2868,VALID,0,VALID,23.914,VALID,33,VALID,0,
2010-04-08, 02:43:04,VALID,1000.96,VALID,0,VALID,94.2716,VALID,0,VALID,23.9354,VALID,33,VALID,0,
2010-04-08, 02:44:04,VALID,1000.95,VALID,0,VALID,94.2868,VALID,0,VALID,23.9354,VALID,33,VALID,0,
2010-04-08, 02:45:04,VALID,1000.98,VALID,0,VALID,94.2945,VALID,0,VALID,23.914,VALID,33,VALID,0,
2010-04-08, 02:46:04,VALID,1000.95,VALID,0,VALID,94.3097,VALID,0,VALID,23.9549,VALID,33,VALID,0,
2010-04-08, 02:47:04,VALID,1000.94,VALID,0,VALID,94.3021,VALID,0,VALID,23.9744,VALID,33,VALID,0,
2010-04-08, 02:48:04,VALID,1000.94,VALID,0,VALID,94.3097,VALID,0,VALID,23.9939,VALID,34,VALID,0,
2010-04-08, 02:49:04,VALID,1000.92,VALID,0,VALID,94.3021,VALID,0,VALID,24.0134,VALID,39,VALID,0,
2010-04-08, 02:50:04,VALID,1000.91,VALID,0,VALID,94.3097,VALID,0,VALID,23.9921,VALID,50,VALID,0,
2010-04-08, 02:51:04,VALID,1000.94,VALID,0,VALID,94.3021,VALID,0,VALID,24.0134,VALID,50,VALID,0,
2010-04-08, 02:52:04,VALID,1000.93,VALID,0,VALID,94.2716,VALID,0,VALID,24.0329,VALID,50,VALID,0,
2010-04-08, 02:53:04,VALID,1000.97,VALID,0,VALID,94.2868,VALID,0,VALID,24.0134,VALID,50,VALID,0,
2010-04-08, 02:54:04,VALID,1001,VALID,0,VALID,94.2792,VALID,0,VALID,23.9939,VALID,50,VALID,0,
2010-04-08, 02:55:04,VALID,1001,VALID,0,VALID,94.2868,VALID,0,VALID,23.9744,VALID,16,VALID,0,
2010-04-08, 02:56:04,VALID,1001.06,VALID,0,VALID,94.2792,VALID,0,VALID,23.9939,VALID,358,VALID,0.764844,
2010-04-08, 02:57:04,VALID,1001.09,VALID,0,VALID,94.2792,VALID,0,VALID,23.9939,VALID,355,VALID,0.741406,
2010-04-08, 02:58:04,VALID,1001.12,VALID,0,VALID,94.2868,VALID,0,VALID,23.9921,VALID,355,VALID,0.937891,
2010-04-08, 02:59:04,VALID,1001.11,VALID,0,VALID,94.2716,VALID,0,VALID,23.9726,VALID,358,VALID,0.806641,
2010-04-08, 03:00:04,VALID,1001.16,VALID,0,VALID,94.2868,VALID,0,VALID,23.9939,VALID,6,VALID,0.806641,
2010-04-08, 03:01:04,VALID,1001.12,VALID,0,VALID,94.3097,VALID,0,VALID,24.0134,VALID,10,VALID,0.807031,
2010-04-08, 03:02:04,VALID,1001.15,VALID,0,VALID,94.264,VALID,0,VALID,24.0134,VALID,10,VALID,0.446094,
2010-04-08, 03:03:04,VALID,1001.16,VALID,0,VALID,94.2868,VALID,0,VALID,23.9939,VALID,10,VALID,0.190234,
2010-04-08, 03:04:04,VALID,1001.12,VALID,0,VALID,94.264,VALID,0,VALID,24.0134,VALID,10,VALID,0,
2010-04-08, 03:05:04,VALID,1001.12,VALID,0,VALID,94.2716,VALID,0,VALID,24.0329,VALID,10,VALID,0,
2010-04-08, 03:06:04,VALID,1001.13,VALID,0,VALID,94.2716,VALID,0,VALID,24.0525,VALID,10,VALID,0,
2010-04-08, 03:07:04,VALID,1001.14,VALID,0,VALID,94.264,VALID,0,VALID,24.0506,VALID,10,VALID,0,
2010-04-08, 03:08:04,VALID,1001.14,VALID,0,VALID,94.2792,VALID,0,VALID,24.0915,VALID,319,VALID,0.410156,
2010-04-08, 03:09:04,VALID,1001.19,VALID,0,VALID,94.2792,VALID,0,VALID,24.111,VALID,308,VALID,0.501562,
2010-04-08, 03:10:04,VALID,1001.18,VALID,0,VALID,94.2563,VALID,0,VALID,24.1305,VALID,305,VALID,0.0195313,
2010-04-08, 03:11:04,VALID,1001.19,VALID,0,VALID,94.2563,VALID,0,VALID,24.111,VALID,305,VALID,0,
2010-04-08, 03:12:04,VALID,1001.2,VALID,0,VALID,94.2716,VALID,0,VALID,24.1092,VALID,305,VALID,0,
2010-04-08, 03:13:04,VALID,1001.22,VALID,0,VALID,94.2487,VALID,0,VALID,24.1305,VALID,305,VALID,0,
2010-04-08, 03:14:04,VALID,1001.23,VALID,0,VALID,94.2792,VALID,0,VALID,24.1287,VALID,305,VALID,0,
2010-04-08, 03:15:04,VALID,1001.27,VALID,0,VALID,94.2716,VALID,0,VALID,24.1287,VALID,305,VALID,0,
2010-04-08, 03:16:04,VALID,1001.29,VALID,0,VALID,94.2563,VALID,0,VALID,24.1287,VALID,303,VALID,0,
2010-04-08, 03:17:04,VALID,1001.31,VALID,0,VALID,94.2563,VALID,0,VALID,24.15,VALID,303,VALID,0,
2010-04-08, 03:18:04,VALID,1001.33,VALID,0,VALID,94.2716,VALID,0,VALID,24.1287,VALID,278,VALID,0.275781,
2010-04-08, 03:19:04,VALID,1001.35,VALID,0,VALID,94.264,VALID,0,VALID,24.1696,VALID,270,VALID,0,
2010-04-08, 03:20:04,VALID,1001.4,VALID,0,VALID,94.264,VALID,0,VALID,24.1482,VALID,270,VALID,0,
2010-04-08, 03:21:04,VALID,1001.4,VALID,0,VALID,94.2563,VALID,0,VALID,24.1482,VALID,270,VALID,0,
2010-04-08, 03:22:04,VALID,1001.41,VALID,0,VALID,94.2716,VALID,0,VALID,24.1696,VALID,270,VALID,0,
2010-04-08, 03:23:04,VALID,1001.45,VALID,0,VALID,94.2716,VALID,0,VALID,24.1696,VALID,270,VALID,0.0820313,
2010-04-08, 03:24:04,VALID,1001.46,VALID,0,VALID,94.2716,VALID,0,VALID,24.1696,VALID,270,VALID,0.564062,
2010-04-08, 03:25:04,VALID,1001.48,VALID,0,VALID,94.2487,VALID,0,VALID,24.2086,VALID,270,VALID,0.158203,
2010-04-08, 03:26:04,VALID,1001.5,VALID,0,VALID,94.264,VALID,0,VALID,24.1891,VALID,271,VALID,0.0945313,
2010-04-08, 03:27:04,VALID,1001.52,VALID,0,VALID,94.264,VALID,0,VALID,24.1696,VALID,275,VALID,0.225391,
2010-04-08, 03:28:04,VALID,1001.53,VALID,0,VALID,94.2868,VALID,0,VALID,24.1482,VALID,278,VALID,0,
2010-04-08, 03:29:04,VALID,1001.56,VALID,0,VALID,94.2716,VALID,0,VALID,24.1891,VALID,278,VALID,0,
2010-04-08, 03:30:04,VALID,1001.63,VALID,0,VALID,94.2563,VALID,0,VALID,24.1872,VALID,278,VALID,0,
2010-04-08, 03:31:04,VALID,1001.69,VALID,0,VALID,94.2716,VALID,0,VALID,24.1891,VALID,291,VALID,0.232031,
2010-04-08, 03:32:04,VALID,1001.49,VALID,0,VALID,94.264,VALID,0,VALID,24.1891,VALID,329,VALID,2.62383,
2010-04-08, 03:33:04,VALID,1001.63,VALID,0,VALID,94.2487,VALID,0,VALID,24.2476,VALID,212,VALID,3.12305,
2010-04-08, 03:34:04,VALID,1001.71,VALID,0,VALID,94.2334,VALID,0,VALID,24.2866,VALID,274,VALID,2.07422,
2010-04-08, 03:35:04,VALID,1001.73,VALID,0,VALID,94.2258,VALID,0,VALID,24.2671,VALID,302,VALID,1.5957,
2010-04-08, 03:36:04,VALID,1001.73,VALID,0,VALID,94.2258,VALID,0,VALID,24.2671,VALID,278,VALID,1.30469,
2010-04-08, 03:37:04,VALID,1001.7,VALID,0,VALID,94.2334,VALID,0,VALID,24.2263,VALID,273,VALID,0.923437,
2010-04-08, 03:38:04,VALID,1001.71,VALID,0,VALID,94.2105,VALID,0,VALID,24.2281,VALID,268,VALID,2.3832,
2010-04-08, 03:39:04,VALID,1001.71,VALID,0,VALID,94.1724,VALID,0,VALID,24.2086,VALID,292,VALID,4.51523,
2010-04-08, 03:40:04,VALID,1001.76,VALID,0,VALID,94.2029,VALID,0,VALID,24.1696,VALID,241,VALID,2.97148,
2010-04-08, 03:41:04,VALID,1001.73,VALID,0,VALID,94.1877,VALID,0,VALID,24.111,VALID,288,VALID,2.71875,
2010-04-08, 03:42:04,VALID,1001.76,VALID,0.5,VALID,94.1724,VALID,0,VALID,24.0329,VALID,283,VALID,4.20039,
2010-04-08, 03:43:04,VALID,1001.76,VALID,0,VALID,94.1724,VALID,0,VALID,24.0134,VALID,269,VALID,2.75352,
2010-04-08, 03:44:04,VALID,1001.8,VALID,0,VALID,94.2105,VALID,0,VALID,23.9744,VALID,294,VALID,2.3832,
2010-04-08, 03:45:04,VALID,1001.78,VALID,0,VALID,94.2029,VALID,0,VALID,23.9744,VALID,259,VALID,1.83008,
2010-04-08, 03:46:04,VALID,1001.83,VALID,0,VALID,94.2182,VALID,0,VALID,23.9354,VALID,275,VALID,2.07227,
2010-04-08, 03:47:04,VALID,1001.83,VALID,0.5,VALID,94.2029,VALID,0,VALID,23.9159,VALID,276,VALID,2.37891,
2010-04-08, 03:48:04,VALID,1001.83,VALID,0,VALID,94.2182,VALID,0,VALID,23.8963,VALID,297,VALID,3.69453,
2010-04-08, 03:49:04,VALID,1001.89,VALID,0,VALID,94.2258,VALID,0,VALID,23.875,VALID,263,VALID,1.83477,
2010-04-08, 03:50:04,VALID,1001.86,VALID,0,VALID,94.2182,VALID,0,VALID,23.8963,VALID,261,VALID,1.04883,
2010-04-08, 03:51:04,VALID,1001.89,VALID,0,VALID,94.2334,VALID,0,VALID,23.8963,VALID,281,VALID,1.31367,
2010-04-08, 03:52:04,VALID,1001.93,VALID,0,VALID,94.2182,VALID,0,VALID,23.9159,VALID,265,VALID,1.42148,
2010-04-08, 03:53:04,VALID,1001.94,VALID,0,VALID,94.2029,VALID,0,VALID,23.9159,VALID,283,VALID,0.945313,
2010-04-08, 03:54:04,VALID,1002.01,VALID,0,VALID,94.2182,VALID,0,VALID,23.9159,VALID,247,VALID,1.69922,
2010-04-08, 03:55:04,VALID,1001.97,VALID,0,VALID,94.2487,VALID,0,VALID,23.9336,VALID,294,VALID,1.79062,
2010-04-08, 03:56:04,VALID,1001.98,VALID,0,VALID,94.2258,VALID,0,VALID,23.9549,VALID,290,VALID,1.32578,